Location: Country Club Park
(34.0503°N, 118.3212°W)
Time: 02:36:45
(UTC+00:00)

Cosmos 2227 Rocket - Pass Details

Date: 26 June 2022
Orbit: 839 x 844 km, 71.0° (Epoch: 08 August)

Event Time Altitude Azimuth Distance (km) Brightness Sun altitude
Exits shadow 12:04:06 - 208° (SSW) 2,822 4.4 -7.8°
Reaches altitude 10° 12:05:04 10° 209° (SSW) 2,453 4.1 -7.6°
Maximum altitude 12:10:41 68° 292° (WNW) 908 2.3 -6.7°
Drops below altitude 10° 12:16:19 10° 15° (NNE) 2,468 5.4 -5.7°
Sets 12:18:48 0° 18° (NNE) 3,407 6.3 -5.3°
